Visibility
15.0 15.0 15.0 15.0 15.0 15.0 15.0 15.0 15.0 15.0 15.0 15.0 15.0 15.0 15.0 15.0 15.0 15.0 15.0 15.0 15.0 15.0 15.0 15.0 13.0 1.0 0.3 0.1 0.1 0.2 0.3 0.1 0.2 13.7 15.0 15.0 15.0 15.0 15.0 15.0 15.0 15.0 15.0
15.0 15.0 15.0 15.0 15.0 15.0 15.0 15.0 15.0 15.0 15.0 15.0 15.0 15.0 15.0 15.0 15.0 15.0 15.0 15.0 15.0 15.0 15.0 15.0 15.0 15.0 8.8 0.3 0.1 0.1 0.2 0.1 0.1 0.3 15.0 15.0 15.0 15.0 15.0 15.0 15.0 15.0 15.0
15.0 15.0 15.0 15.0 15.0 15.0 15.0 15.0 15.0 15.0 15.0 15.0 15.0 15.0 15.0 15.0 15.0 15.0 15.0 15.0 15.0 15.0 15.0 15.0 15.0 15.0 15.0 11.8 15.0 15.0 15.0 15.0 15.0 15.0 15.0 15.0 15.0 15.0 15.0 15.0 15.0 15.0 15.0
15.0 15.0 15.0 15.0 15.0 15.0 15.0 15.0 15.0 15.0 15.0 15.0 15.0 15.0 15.0 15.0 15.0 15.0 15.0 15.0 15.0 15.0 15.0 15.0 15.0 15.0 15.0 11.2 15.0 14.6 15.0 15.0 15.0 15.0 15.0 15.0 15.0 15.0 15.0 15.0 15.0 15.0 15.0
15.0 15.0 15.0 15.0 15.0 15.0 15.0 15.0 15.0 15.0 15.0 15.0 15.0 15.0 15.0 15.0 15.0 15.0 15.0 15.0 15.0 15.0 15.0 15.0 15.0 15.0 11.9 6.5 12.1 5.2 15.0 15.0 15.0 15.0 15.0 15.0 15.0 13.3 8.1 15.0 15.0 15.0 15.0
15.0 15.0 15.0 15.0 15.0 15.0 15.0 15.0 15.0 15.0 15.0 15.0 15.0 15.0 15.0 15.0 15.0 15.0 15.0 15.0 15.0 15.0 15.0 15.0 15.0 15.0 15.0 15.0 13.8 13.0 15.0 15.0 13.9 8.2 15.0 4.0 2.3 2.4 14.3 15.0 7.7 10.2 14.8
15.0 15.0 15.0 15.0 15.0 15.0 15.0 15.0 15.0 15.0 15.0 15.0 15.0 15.0 15.0 15.0 15.0 15.0 15.0 15.0 15.0 15.0 15.0 15.0 15.0 15.0 15.0 15.0 15.0 15.0 14.2 15.0 9.0 4.9 3.9 0.2 0.8 1.3 4.9 15.0 14.8 15.0 1.4
15.0 15.0 15.0 15.0 15.0 15.0 15.0 15.0 15.0 15.0 5.8 8.9 15.0 15.0 15.0 15.0 15.0 15.0 15.0 15.0 15.0 15.0 15.0 15.0 15.0 15.0 15.0 15.0 15.0 15.0 15.0 4.0 14.6 15.0 6.5 10.3 10.3 14.8 14.7 15.0 15.0 15.0 13.3
15.0 15.0 15.0 15.0 15.0 15.0 15.0 9.3 5.7 15.0 15.0 4.1 4.1 15.0 15.0 15.0 15.0 15.0 15.0 15.0 15.0 15.0 15.0 15.0 15.0 15.0 15.0 15.0 15.0 15.0 15.0 15.0 15.0 15.0 15.0 15.0 15.0 15.0 15.0 15.0 4.6 15.0 13.9
15.0 15.0 15.0 15.0 15.0 15.0 6.1 6.5 4.1 4.1 4.1 15.0 15.0 15.0 15.0 15.0 15.0 15.0 13.4 15.0 15.0 15.0 15.0 15.0 13.2 15.0 15.0 15.0 15.0 15.0 14.8 15.0 14.8 15.0 15.0 15.0 11.4 15.0 15.0 15.0 2.8 1.2 5.2
15.0 15.0 15.0 15.0 15.0 15.0 15.0 15.0 7.0 10.0 15.0 15.0 15.0 15.0 15.0 9.9 15.0 15.0 15.0 15.0 8.6 15.0 15.0 15.0 15.0 15.0 15.0 15.0 15.0 15.0 15.0 15.0 15.0 15.0 15.0 15.0 15.0 15.0 9.1 15.0 15.0 9.9 8.3
15.0 15.0 15.0 15.0 15.0 0.9 4.4 9.2 15.0 15.0 15.0 12.9 15.0 15.0 10.3 15.0 15.0 12.4 15.0 15.0 15.0 15.0 8.8 15.0 15.0 15.0 15.0 15.0 15.0 15.0 15.0 15.0 15.0 15.0 15.0 15.0 8.8 5.3 2.3 15.0 15.0 15.0 12.1
15.0 15.0 15.0 15.0 15.0 3.0 0.7 0.4 6.7 15.0 15.0 8.1 15.0 6.6 15.0 9.2 9.7 15.0 15.0 15.0 15.0 15.0 8.7 15.0 15.0 15.0 15.0 13.4 15.0 15.0 14.6 15.0 15.0 15.0 14.5 7.2 7.0 13.4 15.0 15.0 15.0 15.0 15.0
15.0 15.0 15.0 15.0 15.0 4.4 4.0 14.9 15.0 15.0 13.1 15.0 14.9 15.0 15.0 15.0 8.3 15.0 15.0 10.2 15.0 15.0 8.3 6.0 10.8 15.0 15.0 15.0 12.4 8.5 15.0 15.0 7.6 6.3 5.5 15.0 15.0 15.0 15.0 15.0 15.0 15.0 15.0
15.0 15.0 15.0 15.0 15.0 5.3 6.4 7.2 15.0 11.0 15.0 15.0 15.0 15.0 15.0 0.8 6.6 15.0 15.0 15.0 12.6 13.6 15.0 15.0 15.0 15.0 15.0 15.0 15.0 10.5 15.0 15.0 15.0 15.0 15.0 13.6 15.0 10.9 13.3 15.0 15.0 15.0 15.0
15.0 15.0 15.0 15.0 15.0 15.0 11.2 0.3 15.0 15.0 15.0 15.0 15.0 15.0 13.3 11.1 10.2 15.0 15.0 15.0 15.0 15.0 15.0 10.8 5.8 11.8 9.7 11.7 5.2 6.5 15.0 15.0 15.0 15.0 15.0 11.5 8.3 5.5 7.6 15.0 15.0 14.5 11.3
15.0 15.0 15.0 15.0 15.0 15.0 15.0 15.0 7.1 15.0 15.0 15.0 15.0 15.0 15.0 15.0 14.9 15.0 15.0 15.0 15.0 15.0 8.2 4.1 4.1 5.4 11.1 15.0 9.1 6.1 15.0 15.0 15.0 15.0 15.0 8.8 9.7 8.5 9.0 14.1 14.6 14.9 9.9
15.0 15.0 15.0 15.0 15.0 15.0 15.0 15.0 14.8 14.0 8.5 9.5 6.9 15.0 9.4 15.0 15.0 15.0 15.0 15.0 8.1 12.1 12.5 4.1 4.1 14.5 15.0 15.0 14.4 7.2 15.0 15.0 15.0 15.0 14.9 12.0 7.2 6.2 6.3 6.8 7.9 6.0 2.6
15.0 12.2 15.0 15.0 15.0 15.0 15.0 15.0 15.0 15.0 15.0 15.0 15.0 4.6 0.5 15.0 15.0 15.0 15.0 14.4 10.5 4.1 5.6 6.4 12.7 15.0 15.0 15.0 5.9 2.8 13.9 15.0 15.0 14.0 15.0 13.1 5.5 5.3 6.0 7.0 6.0 7.8 6.5
15.0 15.0 15.0 15.0 15.0 15.0 15.0 15.0 10.2 9.5 15.0 15.0 15.0 2.3 4.3 15.0 11.9 6.6 5.3 8.8 7.9 10.0 6.6 7.4 15.0 15.0 15.0 15.0 12.0 4.1 10.6 15.0 15.0 15.0 14.9 12.0 7.9 4.9 4.3 3.3 4.0 2.2 3.9
15.0 15.0 15.0 15.0 15.0 15.0 15.0 15.0 11.9 5.2 15.0 15.0 15.0 15.0 15.0 15.0 15.0 9.4 7.2 4.6 5.6 14.7 6.4 9.2 9.6 15.0 15.0 15.0 15.0 8.5 12.1 4.6 14.0 5.6 5.4 8.7 9.7 3.8 5.7 4.3 4.5 5.7 7.1
15.0 15.0 15.0 15.0 15.0 15.0 15.0 15.0 7.6 5.7 15.0 15.0 15.0 9.6 15.0 11.9 15.0 15.0 15.0 11.9 4.1 11.1 12.4 9.0 8.1 15.0 15.0 15.0 15.0 4.4 9.7 4.3 3.8 3.9 4.3 4.7 5.0 4.9 4.4 4.2 4.8 4.9 4.0
15.0 15.0 15.0 15.0 15.0 15.0 15.0 15.0 11.4 15.0 15.0 15.0 15.0 15.0 15.0 12.9 10.8 15.0 15.0 6.8 15.0 15.0 10.1 14.1 11.2 15.0 15.0 13.7 10.1 7.5 3.9 3.8 3.7 4.0 3.6 2.7 3.8 3.5 2.9 2.1 2.4 1.8 1.3
15.0 15.0 15.0 15.0 15.0 15.0 15.0 15.0 15.0 15.0 15.0 15.0 15.0 15.0 15.0 15.0 15.0 15.0 15.0 12.7 15.0 13.8 5.3 15.0 15.0 14.9 15.0 14.6 4.2 14.3 15.0 14.6 8.9 15.0 3.6 1.7 2.4 3.1 2.5 2.7 2.1 1.0 1.8
15.0 15.0 15.0 15.0 15.0 15.0 15.0 15.0 15.0 15.0 15.0 15.0 15.0 14.6 15.0 15.0 15.0 15.0 15.0 15.0 15.0 6.2 15.0 15.0 15.0 15.0 15.0 15.0 3.7 13.2 2.0 0.1 2.8 5.6 2.4 2.0 1.7 1.7 2.2 2.0 2.8 1.2 3.0
15.0 15.0 15.0 15.0 15.0 15.0 15.0 15.0 15.0 15.0 15.0 15.0 15.0 15.0 15.0 15.0 15.0 15.0 15.0 11.2 14.3 14.8 15.0 15.0 15.0 15.0 11.9 4.2 2.9 4.4 0.1 0.4 2.0 4.1 1.4 1.4 1.5 2.9 4.0 3.9 3.6 1.4 2.0